User: anonymous   Login
Location: Unspecified
(0.0000°N, 0.0000°E)
Time: 18:43:07
(UTC+00:00)
Language:

Feng Yun - Orbit

View from above orbital plane
View from above orbital plane
View from above satellite
View from above satellite

Ground track
Ground track

The orbit data is extracted from the following two-line orbital elements,

1 24834U 97029A   18350.45278927 -.00000119 +00000-0 +00000-0 0  9991
2 24834 014.1773 025.9962 0098093 173.8913 358.4064 00.96051183077085
Epoch (UTC): 16 December 2018 10:52:00
Eccentricity: 0.0098093
inclination: 14.1773°
perigee height: 36587 km
apogee height: 37438 km
right ascension of ascending node: 25.9962°
argument of perigee: 173.8913°
revolutions per day: 0.96051183
mean anomaly at epoch: 358.4064°
orbit number at epoch: 7708

The dashed part of the orbit path shows where the satellite is in the earth's shadow,  

DLR